Flag for Canada Weather past 2 weeks in Barrie, Ontario, Canada

Now
27 °F

Clear.


Feels Like: 27 °F
Forecast: 29 / 67 °F
Wind: 2 mph from South

Location: Borden

Current Time: May 23, 2015 at 3:45:36 AM

Latest Report: May 23, 2015 at 3:00 AM


Visibility: 9 mi

Pressure: 30.34 "Hg

Humidity: 100%

Dew point: 27 °F

Location of BarrieLocation

Historic Weather in Barrie — Graph

°F

Barrie temperature yesterday

Maximum temperature yesterday: 52 °F (at 12:00 AM)
Minimum temperature yesterday: 30 °F (at 11:00 PM)
Average temperature yesterday: 45 °F

Past Weeks' High & Low Weather Summary

 TemperatureHumidityPressure
High91 °F (May 9, 2:00 PM)100% (May 9, 6:54 PM)30.50 "Hg (May 9, 6:54 PM)
Low27 °F (May 14, 4:00 AM)23% (May 21, 4:00 PM)29.72 "Hg (May 12, 1:00 AM)
Average56 °F72%30.06 "Hg
* Reported May 8 2:00 AM — May 23 2:00 AM, Barrie, Weather by CustomWeather, © 2015

Note: Actual official high and low records may vary slightly from our data, if they occured in-between our weather recording intervals... More about our weather records

Advertising

Barrie weather history for previous 24 hours

 ConditionsComfort  
Time TempWeatherWind HumidityBarometerVisibility
2:00 AM
Sat, May 23
27 °FClear.3 mph86%30.33 "Hg9 mi
1:00 AM27 °FClear.No wind86%30.32 "Hg9 mi
12:00 AM28 °FClear.2 mph86%30.32 "Hg9 mi
11:00 PM
Fri, May 22
30 °FClear.No wind80%30.32 "Hg9 mi
10:00 PM32 °FClear.No wind80%30.30 "Hg9 mi
9:00 PM41 °FSunny.2 mph57%30.28 "Hg9 mi
8:00 PM45 °FSunny.10 mph46%30.26 "Hg9 mi
7:00 PM46 °FSunny.12 mph43%30.25 "Hg9 mi
6:00 PM46 °FSunny.12 mph50%30.24 "Hg9 mi
5:00 PM46 °FSunny.15 mph46%30.22 "Hg9 mi
4:00 PM46 °FSunny.14 mph46%30.20 "Hg9 mi
3:00 PM46 °FSunny.14 mph46%30.18 "Hg9 mi
2:00 PM46 °FPassing clouds.16 mph46%30.17 "Hg9 mi
1:00 PM48 °FSunny.14 mph50%30.14 "Hg9 mi
12:00 PM48 °FSunny.17 mph54%30.12 "Hg9 mi
11:00 AM50 °FPassing clouds.13 mph54%30.10 "Hg9 mi
10:00 AM48 °FPassing clouds.12 mph62%30.08 "Hg9 mi
9:00 AM48 °FPartly sunny.5 mph62%30.06 "Hg9 mi
8:00 AM46 °FPartly sunny.6 mph82%30.04 "Hg9 mi
7:00 AM43 °FPartly sunny.5 mph93%30.02 "Hg9 mi
6:00 AM41 °FPassing clouds.5 mph93%29.99 "Hg9 mi
5:00 AM41 °FClear.7 mph93%29.96 "Hg9 mi
4:00 AM43 °FClear.7 mph87%29.93 "Hg9 mi
3:00 AM45 °FClear.7 mph71%29.90 "Hg9 mi
Weather by CustomWeather, © 2015

See weather overviewHow to use our weather pages